Location: ??????????
(44.2167°N, 135.5333°E)
Time: 15:00:31
(UTC+00:00)

SL-12 R/B(2) - Pass Details

Date: 15 June 2025
Orbit: 1179 x 2170 km, 63.4° (Epoch: 15 July)

Event Time Altitude Azimuth Distance (km) Brightness Sun altitude
Exits shadow 15:47:00 25° 230° (SW) 2,408 5.1 -21.5°
Maximum altitude 15:52:12 74° 311° (NW) 1,505 4.4 -21.3°
Drops below altitude 10° 16:01:57 10° 36° (NE) 3,978 7.7 -20.9°
Sets 16:05:26 0° 39° (NE) 5,113 8.4 -20.7°
